[[{"header":{"parameterUnit":"m.s-1","parameterCategory":1,"la1":30.2991,"la2":30.254,"lo1":-89.0895,"lo2":-89.0444,"dy":0.0017,"dx":0.0017,"nx":28,"ny":28,"refTime":"2025-11-06T03:00:00:Z","depth":0,"parameterNumber":2,"parameterNumberName":"U-component_of_WINDS"},"data":[0,0,0,0,0,0,0,0,0,0,0,0,0,0,0,0,0,0,0,0,0,0,0,0,0,0,0,0,0,0,0,0,0,0,0,0,0,0,0,0,0,0,0,0,0,0,0,0,0,0,0,0,0,0,0,0,0,0,-0.435,-0.435,0,-0.4381,-0.4382,-0.4382,-0.436,-0.4359,-0.4358,-0.4357,-0.4391,-0.4393,-0.4395,0,0,0,0,0,0,0,0,0,0,0,0,0,-0.4273,-0.4275,-0.435,-0.435,-0.4351,-0.4381,-0.4382,-0.4382,-0.436,-0.4359,-0.4357,-0.4356,-0.4391,-0.4393,-0.4395,0,0,0,0,0,0,0,0,0,0,0,0,0,-0.4306,-0.4275,-0.435,-0.4343,-0.4343,-0.4381,-0.4382,-0.4382,-0.436,-0.4359,-0.4357,-0.4356,-0.439,-0.4393,-0.4395,-0.4442,0,0,-0.4404,-0.4405,0,0,0,0,0,0,0,0,-0.4304,-0.4309,-0.4344,-0.4344,-0.4344,-0.4365,-0.4367,-0.4403,-0.4361,-0.4354,-0.4357,-0.4355,-0.4384,-0.4387,-0.4396,-0.4444,-0.4446,-0.4404,-0.4406,-0.4407,-0.4408,0,0,0,0,0,0,0,-0.4302,-0.4307,-0.4362,-0.4344,-0.4344,-0.434,-0.4343,-0.4374,-0.4377,-0.4354,-0.4353,-0.4357,-0.4384,-0.4394,-0.4397,-0.4446,-0.4404,-0.4406,-0.4408,-0.4409,-0.4535,-0.4537,0,0,0,0,0,0,-0.43,-0.4306,-0.4361,-0.4363,-0.432,-0.4342,-0.4345,-0.436,-0.4376,-0.4378,-0.4358,-0.4355,-0.439,-0.4394,-0.4398,-0.4455,-0.4407,-0.441,-0.4411,-0.4533,-0.4535,-0.4537,0,0,0,0,0,0,-0.4298,-0.4305,-0.436,-0.4334,-0.4341,-0.4345,-0.4361,-0.4361,-0.4371,-0.4379,-0.438,-0.4367,-0.4389,-0.4394,-0.4432,-0.4456,-0.4411,-0.4413,-0.4531,-0.4534,-0.4536,-0.4569,0,0,0,0,0,0,-0.4296,-0.4305,-0.4322,-0.4335,-0.4342,-0.4393,-0.4363,-0.4363,-0.4376,-0.4373,-0.4388,-0.439,-0.4388,-0.4428,-0.4434,-0.4459,-0.4415,-0.4529,-0.4533,-0.4536,-0.4566,-0.4573,-0.4578,0,0,0,0,0,-0.4294,-0.433,-0.4323,-0.433,-0.4364,-0.4394,-0.4398,-0.4395,-0.4378,-0.4396,-0.4401,-0.4389,-0.4452,-0.4432,-0.4439,-0.4465,-0.4528,-0.4532,-0.4535,-0.4563,-0.4571,-0.4578,0,0,0,0,0,0,-0.4321,-0.4332,-0.4324,-0.4366,-0.4379,-0.439,-0.4413,-0.4404,-0.4423,-0.4419,-0.4415,-0.4419,-0.4458,-0.4465,-0.4442,-0.4512,-0.4487,-0.4493,-0.4506,-0.4514,-0.452,-0.4518,-0.4418,0,0,0,0,0,-0.4332,-0.4355,-0.4363,-0.4399,-0.4406,-0.4409,-0.4422,-0.4418,-0.4432,-0.4438,-0.4445,-0.446,-0.4483,-0.4499,-0.452,-0.4567,-0.457,-0.4588,-0.4594,-0.4599,-0.4604,-0.463,-0.4639,-0.455,-0.455,-0.455,0,0,-0.4355,-0.4364,-0.4379,-0.4405,-0.4415,-0.444,-0.4414,-0.4441,-0.4459,-0.4442,-0.4478,-0.4484,-0.45,-0.4543,-0.4562,-0.455,-0.463,-0.4604,-0.4608,-0.461,-0.4635,-0.4644,-0.4651,-0.4552,-0.4552,-0.4551,0,0,-0.441,-0.4418,-0.445,-0.446,-0.4475,-0.4476,-0.4484,-0.4496,-0.45,-0.4535,-0.4523,-0.4546,-0.4585,-0.4598,-0.4609,-0.4668,-0.4659,-0.4676,-0.4708,-0.4733,-0.474,-0.4747,-0.4769,-0.4777,-0.468,-0.4681,-0.4681,0,-0.4437,-0.4473,-0.4467,-0.4495,-0.4508,-0.4492,-0.4525,-0.4536,-0.4557,-0.4567,-0.4553,-0.4602,-0.4612,-0.4658,-0.4672,-0.4681,-0.4691,-0.4674,-0.474,-0.4746,-0.4752,-0.4773,-0.4781,-0.4683,-0.4682,-0.4682,-0.4682,0,-0.4506,-0.4531,-0.4555,-0.4576,-0.4591,-0.4621,-0.4621,-0.4637,-0.4632,-0.4634,-0.4672,-0.4683,-0.4707,-0.4717,-0.4712,-0.4762,-0.4754,-0.474,-0.4715,-0.4762,-0.4782,-0.479,-0.4686,-0.4685,-0.4684,-0.4684,0,0,-0.458,-0.4597,-0.4606,-0.4616,-0.4631,-0.4651,-0.4681,-0.4703,-0.4718,-0.4733,-0.4759,-0.4793,-0.478,-0.4793,-0.4789,-0.4811,-0.4859,-0.4795,-0.4795,-0.4807,-0.4916,-0.4928,-0.4937,-0.4852,-0.4854,-0.4855,-0.4915,0,-0.4637,-0.4688,-0.4684,-0.4732,-0.4756,-0.4742,-0.4768,-0.4781,-0.4784,-0.4806,-0.4809,-0.4834,-0.4814,-0.4822,-0.4843,-0.4849,-0.4881,-0.4844,-0.4877,-0.4879,-0.4875,-0.4947,-0.4959,-0.5016,-0.4923,-0.4924,-0.4925,0,-0.471,-0.4727,-0.4778,-0.479,-0.48,-0.4824,-0.4845,-0.4865,-0.4879,-0.488,-0.4895,-0.4888,-0.4919,-0.4892,-0.4936,-0.4911,-0.4924,-0.4929,-0.4931,-0.4935,-0.4906,-0.4954,-0.5033,-0.5042,-0.4937,-0.4936,-0.4935,0,-0.476,-0.4796,-0.4832,-0.484,-0.4855,-0.4872,-0.4879,-0.4892,-0.4906,-0.4925,-0.4934,-0.4956,-0.4968,-0.4986,-0.4985,-0.4966,-0.503,-0.5003,-0.5032,-0.5032,-0.5047,-0.5047,-0.5131,-0.5054,-0.5054,-0.5054,-0.5053,0,-0.4824,-0.4856,-0.4854,-0.4877,-0.4912,-0.4907,-0.4943,-0.4949,-0.496,-0.4984,-0.4972,-0.4995,-0.4992,-0.5015,-0.5015,-0.5051,-0.5057,-0.5059,-0.5059,-0.5061,-0.5061,-0.507,-0.5067,-0.5056,-0.5055,-0.5055,-0.5054,0,-0.4887,-0.4887,-0.4925,-0.4936,-0.4939,-0.4965,-0.4975,-0.4996,-0.4998,-0.5028,-0.5035,-0.5039,-0.5065,-0.5066,-0.5096,-0.5096,-0.5141,-0.5136,-0.5136,-0.5136,-0.5165,-0.5163,-0.526,-0.5273,-0.5186,-0.5187,-0.5188,0,-0.4929,-0.4953,-0.4966,-0.4981,-0.4989,-0.5012,-0.5027,-0.5023,-0.5038,-0.5057,-0.5076,-0.5101,-0.5121,-0.5164,-0.517,-0.5193,-0.5189,-0.5222,-0.5193,-0.5194,-0.5191,-0.519,-0.5193,-0.5228,-0.5229,-0.5229,-0.523,0,-0.5003,-0.5002,-0.5022,-0.5043,-0.506,-0.5076,-0.5092,-0.5104,-0.5102,-0.512,-0.5147,-0.5162,-0.5193,-0.5218,-0.5241,-0.5249,-0.524,-0.5239,-0.5247,-0.525,-0.525,-0.5251,-0.5153,-0.5237,-0.5236,-0.5236,-0.5235,-0.5235,-0.5057,-0.5079,-0.5091,-0.5115,-0.5126,-0.514,-0.5161,-0.5165,-0.5187,-0.5211,-0.5208,-0.5237,-0.5252,-0.5281,-0.5291,-0.5315,-0.5304,-0.5316,-0.5319,-0.5322,-0.5326,-0.5245,-0.5319,-0.5319,-0.5319,-0.5318,-0.5318,0,-0.5132,-0.5139,-0.5161,-0.5182,-0.5201,-0.5189,-0.5205,-0.5222,-0.5248,-0.5262,-0.5282,-0.5312,-0.5337,-0.5345,-0.5369,-0.5387,-0.5383,-0.5393,-0.5393,-0.5395,-0.5334,-0.5325,-0.5396,-0.5396,-0.5396,-0.5396,-0.5396,-0.5396,-0.5173,-0.5209,-0.5209,-0.525,-0.5258,-0.5286,-0.5296,-0.531,-0.5321,-0.5356,-0.5376,-0.538,-0.5392,-0.5417,-0.544,-0.5441,-0.5451,-0.5464,-0.5464,-0.5407,-0.5399,-0.5392,-0.5383,-0.5465,-0.5466,-0.5523,-0.5523,-0.5524]},{"header":{"parameterUnit":"m.s-1","parameterCategory":1,"la1":30.2991,"la2":30.254,"lo1":-89.0895,"lo2":-89.0444,"dy":0.0017,"dx":0.0017,"nx":28,"ny":28,"refTime":"2025-11-06T03:00:00:Z","depth":0,"parameterNumber":3,"parameterNumberName":"V-component_of_WINDS"},"data":[0,0,0,0,0,0,0,0,0,0,0,0,0,0,0,0,0,0,0,0,0,0,0,0,0,0,0,0,0,0,0,0,0,0,0,0,0,0,0,0,0,0,0,0,0,0,0,0,0,0,0,0,0,0,0,0,0,0,-1.1485,-1.1485,0,-1.1436,-1.1436,-1.1435,-1.1402,-1.1401,-1.1401,-1.1401,-1.135,-1.1349,-1.1348,0,0,0,0,0,0,0,0,0,0,0,0,0,-1.1549,-1.1548,-1.1485,-1.1485,-1.1484,-1.1437,-1.1436,-1.1435,-1.1402,-1.1401,-1.1401,-1.1401,-1.135,-1.1349,-1.1348,0,0,0,0,0,0,0,0,0,0,0,0,0,-1.1513,-1.1547,-1.1485,-1.1462,-1.1459,-1.1437,-1.1436,-1.1435,-1.1402,-1.1401,-1.1401,-1.1401,-1.1351,-1.1349,-1.1348,-1.1345,0,0,-1.1342,-1.1342,0,0,0,0,0,0,0,0,-1.1515,-1.151,-1.1466,-1.1463,-1.146,-1.1425,-1.1439,-1.1405,-1.1402,-1.1424,-1.1401,-1.1401,-1.1375,-1.1372,-1.1363,-1.1342,-1.134,-1.1342,-1.1341,-1.1341,-1.134,0,0,0,0,0,0,0,-1.1517,-1.1512,-1.1466,-1.1465,-1.1462,-1.1453,-1.1448,-1.1433,-1.1402,-1.1422,-1.1419,-1.1414,-1.1374,-1.1365,-1.1362,-1.1339,-1.1342,-1.1341,-1.134,-1.1339,-1.1313,-1.1314,0,0,0,0,0,0,-1.1524,-1.1515,-1.1467,-1.1464,-1.1487,-1.1452,-1.1446,-1.1437,-1.1402,-1.1396,-1.1414,-1.1412,-1.1368,-1.1364,-1.136,-1.1354,-1.1341,-1.1339,-1.1338,-1.1313,-1.1313,-1.1314,0,0,0,0,0,0,-1.1525,-1.152,-1.1469,-1.1489,-1.1482,-1.1452,-1.1441,-1.1436,-1.1427,-1.1396,-1.1391,-1.1411,-1.1367,-1.1362,-1.1349,-1.1351,-1.1338,-1.1337,-1.1313,-1.1313,-1.1313,-1.1342,0,0,0,0,0,0,-1.1527,-1.1521,-1.1519,-1.1489,-1.1481,-1.1459,-1.1441,-1.1435,-1.1424,-1.1421,-1.1392,-1.1387,-1.1367,-1.1351,-1.1347,-1.1349,-1.1335,-1.1312,-1.1313,-1.1313,-1.134,-1.1343,-1.1346,0,0,0,0,0,-1.153,-1.1529,-1.1519,-1.1514,-1.1479,-1.146,-1.1455,-1.1432,-1.1425,-1.1423,-1.1403,-1.1387,-1.1352,-1.135,-1.1345,-1.1347,-1.1312,-1.1313,-1.1313,-1.1339,-1.1343,-1.1345,0,0,0,0,0,0,-1.156,-1.1525,-1.1514,-1.1503,-1.1485,-1.1454,-1.1451,-1.1437,-1.142,-1.1418,-1.139,-1.1384,-1.1373,-1.1358,-1.1357,-1.1342,-1.133,-1.133,-1.1352,-1.1354,-1.1357,-1.1361,-1.1334,0,0,0,0,0,-1.1566,-1.1553,-1.1523,-1.1517,-1.1508,-1.1482,-1.1472,-1.1457,-1.1436,-1.1428,-1.1407,-1.1388,-1.1372,-1.1363,-1.1347,-1.1338,-1.1331,-1.1337,-1.1339,-1.1342,-1.1342,-1.1336,-1.1338,-1.1316,-1.1316,-1.1316,0,0,-1.1577,-1.1556,-1.155,-1.1523,-1.1506,-1.1494,-1.1475,-1.1463,-1.1453,-1.1426,-1.1412,-1.1396,-1.1373,-1.1362,-1.1356,-1.1349,-1.1346,-1.1343,-1.1345,-1.1343,-1.1337,-1.1339,-1.1341,-1.1317,-1.1316,-1.1316,0,0,-1.1591,-1.1574,-1.1567,-1.1552,-1.1527,-1.151,-1.1508,-1.1479,-1.1468,-1.1454,-1.1433,-1.1421,-1.1395,-1.1379,-1.1367,-1.1376,-1.1361,-1.1372,-1.1385,-1.1379,-1.1381,-1.1382,-1.1385,-1.1387,-1.1372,-1.1372,-1.1372,0,-1.1608,-1.1589,-1.1565,-1.1554,-1.1543,-1.1518,-1.1511,-1.1496,-1.1468,-1.1461,-1.1454,-1.142,-1.1403,-1.1388,-1.139,-1.1381,-1.1378,-1.1375,-1.1383,-1.1384,-1.1385,-1.1387,-1.1388,-1.1373,-1.1373,-1.1373,-1.1373,0,-1.1611,-1.1598,-1.1595,-1.1569,-1.1557,-1.1548,-1.1523,-1.1513,-1.1499,-1.1482,-1.1467,-1.1446,-1.1425,-1.142,-1.1405,-1.1403,-1.1399,-1.1388,-1.1376,-1.1389,-1.1391,-1.1391,-1.1375,-1.1375,-1.1374,-1.1374,0,0,-1.1642,-1.1603,-1.1603,-1.159,-1.1562,-1.1552,-1.1541,-1.1521,-1.1514,-1.1495,-1.1485,-1.1464,-1.1453,-1.144,-1.1424,-1.142,-1.1427,-1.1409,-1.1408,-1.1413,-1.1423,-1.1431,-1.1433,-1.1417,-1.1417,-1.1417,-1.1425,0,-1.1652,-1.1632,-1.1611,-1.1599,-1.1586,-1.1563,-1.1554,-1.1535,-1.1519,-1.1506,-1.1488,-1.1473,-1.146,-1.1452,-1.1447,-1.1428,-1.1429,-1.1427,-1.1408,-1.1407,-1.1414,-1.1433,-1.1442,-1.145,-1.1425,-1.1425,-1.1425,0,-1.166,-1.1643,-1.163,-1.1603,-1.1597,-1.1589,-1.1569,-1.1557,-1.1535,-1.1524,-1.151,-1.1492,-1.148,-1.1469,-1.1452,-1.1451,-1.1442,-1.1431,-1.1431,-1.1428,-1.1417,-1.1431,-1.1452,-1.1453,-1.1426,-1.1426,-1.1426,0,-1.1684,-1.1658,-1.1646,-1.1637,-1.1605,-1.16,-1.1586,-1.1565,-1.1554,-1.1536,-1.1529,-1.151,-1.15,-1.1485,-1.1463,-1.1458,-1.1448,-1.1436,-1.1438,-1.1438,-1.1436,-1.1437,-1.1456,-1.1432,-1.1432,-1.1432,-1.1432,0,-1.1697,-1.1689,-1.1657,-1.165,-1.1641,-1.1616,-1.1608,-1.1592,-1.1573,-1.1562,-1.1541,-1.1531,-1.1503,-1.149,-1.1472,-1.1461,-1.1456,-1.1446,-1.1442,-1.1448,-1.1449,-1.1441,-1.144,-1.1432,-1.1432,-1.1432,-1.1432,0,-1.1722,-1.17,-1.1685,-1.1657,-1.1649,-1.1644,-1.1619,-1.1611,-1.1594,-1.1581,-1.1576,-1.1549,-1.1533,-1.1509,-1.1486,-1.1474,-1.1464,-1.1457,-1.1472,-1.1469,-1.1472,-1.1472,-1.1487,-1.1488,-1.1463,-1.1463,-1.1464,0,-1.1731,-1.1725,-1.1695,-1.1687,-1.1674,-1.1661,-1.165,-1.1626,-1.1615,-1.159,-1.1585,-1.1567,-1.1551,-1.1526,-1.1504,-1.1486,-1.1478,-1.1484,-1.1475,-1.1482,-1.1478,-1.1478,-1.1477,-1.1487,-1.1487,-1.1487,-1.1488,0,-1.175,-1.1739,-1.1724,-1.1706,-1.1693,-1.1678,-1.1661,-1.1655,-1.1627,-1.1616,-1.1599,-1.1587,-1.1563,-1.1545,-1.1524,-1.151,-1.1494,-1.1491,-1.149,-1.1496,-1.1505,-1.15,-1.1477,-1.149,-1.149,-1.149,-1.149,-1.149,-1.1767,-1.176,-1.1739,-1.1723,-1.1708,-1.1692,-1.1684,-1.1665,-1.1651,-1.163,-1.1616,-1.16,-1.1578,-1.1549,-1.1535,-1.1522,-1.1515,-1.1515,-1.1514,-1.1514,-1.1517,-1.1507,-1.1518,-1.1518,-1.1518,-1.1518,-1.1518,0,-1.1784,-1.1769,-1.1755,-1.1732,-1.172,-1.1706,-1.1687,-1.1677,-1.1663,-1.1645,-1.163,-1.161,-1.1593,-1.157,-1.1551,-1.1545,-1.1537,-1.1541,-1.1541,-1.1538,-1.1524,-1.1526,-1.1547,-1.1547,-1.1547,-1.1547,-1.1547,-1.1547,-1.1791,-1.178,-1.1767,-1.1747,-1.1732,-1.1716,-1.1706,-1.1692,-1.1677,-1.1656,-1.1642,-1.1627,-1.1607,-1.1586,-1.157,-1.1563,-1.1557,-1.1563,-1.1554,-1.1541,-1.1539,-1.1536,-1.1538,-1.1562,-1.1562,-1.1569,-1.1569,-1.1569]}]]